Weather History for Spirit of St Louis, MO

Change the Weather History Date:

Wednesday, April 10, 2013

  Actual Average Record
Temperature  
Mean Temperature 68 °F -  
Max Temperature 77 °F 64 °F 90 °F (2011)
Min Temperature 60 °F 41 °F 27 °F (2003)
Cooling Degree Days 2    
Growing Degree Days 18 (Base 50)    
Moisture  
Dew Point 60 °F    
Average Humidity 83    
Maximum Humidity 94    
Minimum Humidity 65    
Precipitation  
Precipitation 0.78 in - - ()
Sea Level Pressure  
Sea Level Pressure 29.71 in    
Wind  
Wind Speed 6 mph (North)    
Max Wind Speed 40 mph    
Max Gust Speed 55 mph    
Visibility 8 miles    
Events Rain , Thunderstorm    
Averages and records for this station are not official NWS values.
T = Trace of Precipitation, MM = Missing Value Source: NWS Daily Summary

Daily Weather History Graph

Daily Weather History Graph

Search for Another Location

Airport:

Trip Planner

Search our weather history database for the weather conditions in past years. The results will help you decide how hot, cold, wet, or windy it might be!

Date:

Astronomy

Apr. 10, 2013 Rise Set
Actual Time 6:33 AM CDT 7:34 PM CDT
Civil Twilight 6:06 AM CDT 8:02 PM CDT
Nautical Twilight 5:33 AM CDT 8:34 PM CDT
Astronomical Twilight 5:00 AM CDT 9:08 PM CDT
Moon 6:29 AM CDT (4/10) 8:10 PM CDT (4/10)
Length of Visible Light 13h 55m
Length of Day
13h 01m
Waxing Crescent, 0% of the Moon is Illuminated
Apr 10
Waxing Crescent
Apr 18
First Quarter
Apr 25
Full
May 2
Last Quarter
May 9
New

Hourly Weather History & Observations

Time (CDT) Temp. Dew Point Humidity Pressure Visibility Wind Dir Wind Speed Gust Speed Precip Events Conditions
12:54 AM 70.0 °F 57.9 °F 65% 29.76 in 10.0 mi SSE 4.6 mph - N/A   Clear
1:54 AM 69.1 °F 59.0 °F 70% 29.78 in 10.0 mi Calm Calm - N/A   Mostly Cloudy
2:54 AM 66.0 °F 59.0 °F 78% 29.75 in 10.0 mi East 6.9 mph - N/A   Mostly Cloudy
3:54 AM 68.0 °F 60.1 °F 76% 29.75 in 10.0 mi ESE 3.5 mph - N/A   Partly Cloudy
4:54 AM 66.0 °F 60.1 °F 81% 29.72 in 10.0 mi SE 4.6 mph - N/A   Clear
5:54 AM 72.0 °F 63.0 °F 73% 29.71 in 10.0 mi South 9.2 mph - N/A   Scattered Clouds
6:42 AM 69.8 °F 62.6 °F 78% 29.78 in 10.0 mi NW 10.4 mph - N/A Thunderstorm Mostly Cloudy
6:54 AM 69.1 °F 61.0 °F 75% 29.77 in 10.0 mi Calm Calm - N/A Thunderstorm Overcast
7:13 AM 68.0 °F 57.2 °F 68% 29.80 in 8.0 mi NW 6.9 mph - 0.01 in Rain Light Rain
7:54 AM 66.0 °F 59.0 °F 78% 29.79 in 10.0 mi North 3.5 mph - 0.05 in   Overcast
8:54 AM 64.9 °F 59.0 °F 81% 29.79 in 10.0 mi Calm Calm - 0.00 in Thunderstorm Overcast
9:54 AM 63.0 °F 59.0 °F 87% 29.80 in 10.0 mi Calm Calm - 0.01 in   Overcast
10:41 AM 62.6 °F 57.2 °F 82% 29.83 in 10.0 mi NNW 6.9 mph - N/A   Overcast
10:54 AM 62.1 °F 57.9 °F 86% 29.82 in 10.0 mi NW 5.8 mph - N/A   Overcast
11:09 AM 62.6 °F 57.2 °F 82% 29.83 in 10.0 mi NW 3.5 mph - N/A   Overcast
11:54 AM 64.4 °F 59.0 °F 83% 29.82 in 10.0 mi Variable 3.5 mph - N/A   Mostly Cloudy
12:03 PM 64.4 °F 59.0 °F 83% 29.81 in 10.0 mi ENE 5.8 mph - N/A   Scattered Clouds
12:54 PM 68.0 °F 61.0 °F 78% 29.78 in 10.0 mi ENE 6.9 mph - N/A   Mostly Cloudy
1:54 PM 73.4 °F 64.4 °F 73% 29.74 in 10.0 mi ENE 4.6 mph - N/A   Scattered Clouds
2:54 PM 75.9 °F 64.0 °F 67% 29.69 in 10.0 mi NNE 4.6 mph - N/A   Overcast
3:12 PM 75.2 °F 62.6 °F 65% 29.70 in 10.0 mi ENE 4.6 mph - N/A Thunderstorm Overcast
3:37 PM 69.8 °F 64.4 °F 83% 29.70 in 1.8 mi NW 13.8 mph - 0.15 in Rain , Thunderstorm Heavy Thunderstorms and Rain
3:54 PM 71.1 °F 66.0 °F 84% 29.66 in 10.0 mi North 8.1 mph - 0.24 in Rain , Thunderstorm Light Thunderstorms and Rain
4:15 PM 71.6 °F 66.2 °F 83% 29.66 in 8.0 mi North 5.8 mph - 0.00 in   Mostly Cloudy
4:54 PM 68.0 °F 64.0 °F 87% 29.64 in 7.0 mi NNE 8.1 mph - 0.00 in Rain Light Rain
5:21 PM 66.2 °F 62.6 °F 88% 29.63 in 6.0 mi NE 8.1 mph - 0.00 in   Mostly Cloudy
5:54 PM 66.9 °F 64.0 °F 90% 29.58 in 6.0 mi East 8.1 mph - 0.00 in   Mostly Cloudy
6:25 PM 66.2 °F 62.6 °F 88% 29.59 in 6.0 mi NE 6.9 mph - N/A Thunderstorm Partly Cloudy
6:35 PM 66.2 °F 62.6 °F 88% 29.58 in 5.0 mi ENE 5.8 mph - N/A Thunderstorm Overcast
6:54 PM 66.0 °F 62.1 °F 87% 29.57 in 5.0 mi WNW 3.5 mph - N/A Thunderstorm Overcast
7:12 PM 66.2 °F 62.6 °F 88% 29.61 in 1.8 mi WSW 9.2 mph - 0.09 in Rain , Thunderstorm Heavy Thunderstorms and Rain
7:20 PM 66.2 °F 62.6 °F 88% 29.59 in 3.0 mi WNW 5.8 mph - 0.11 in Rain , Thunderstorm Light Thunderstorms and Rain
7:52 PM - - N/A% - - WNW 40.3 mph 55.2 mph N/A   Unknown
7:53 PM - - N/A% - - WNW 40.3 mph 55.2 mph N/A   Unknown
7:59 PM 62.6 °F 60.8 °F 94% 29.69 in 2.0 mi West 24.2 mph 49.5 mph 0.02 in Rain , Thunderstorm Thunderstorms and Rain
8:11 PM 62.6 °F 59.0 °F 88% 29.69 in 2.0 mi North - - 0.04 in Thunderstorm Unknown
8:24 PM 60.8 °F 57.2 °F 88% 29.70 in 4.0 mi West 10.4 mph 24.2 mph 0.07 in Rain , Thunderstorm Rain
8:40 PM 60.8 °F 57.2 °F 88% 29.70 in 5.0 mi West 6.9 mph - 0.12 in Rain Rain
8:50 PM 60.8 °F 57.2 °F 88% 29.69 in 4.0 mi WNW 4.6 mph - 0.16 in Rain , Thunderstorm Thunderstorms and Rain
8:54 PM 61.0 °F 57.9 °F 90% 29.68 in 4.0 mi WNW 5.8 mph - 0.17 in Rain , Thunderstorm Thunderstorms and Rain
9:05 PM 60.8 °F 57.2 °F 88% 29.68 in 5.0 mi WNW 3.5 mph - N/A Rain Rain
9:34 PM 60.8 °F 57.2 °F 88% 29.70 in 7.0 mi Calm Calm - 0.15 in Rain , Thunderstorm Thunderstorms and Rain
9:54 PM 60.1 °F 57.9 °F 93% 29.69 in 10.0 mi Calm Calm - 0.20 in Rain , Thunderstorm Light Rain
10:04 PM 60.8 °F 57.2 °F 88% 29.70 in 7.0 mi East 3.5 mph - 0.02 in Rain Light Rain
10:14 PM 60.8 °F 57.2 °F 88% 29.68 in 6.0 mi ENE 5.8 mph - 0.05 in Rain Rain
10:54 PM 60.1 °F 57.0 °F 90% 29.64 in 10.0 mi East 6.9 mph - 0.10 in Rain Light Rain
11:34 PM 60.8 °F 57.2 °F 88% 29.67 in 10.0 mi SE 5.8 mph - 0.01 in   Overcast
11:54 PM 61.0 °F 57.9 °F 90% 29.65 in 10.0 mi SE 6.9 mph - 0.01 in   Overcast